SCP
0 0 0 0 0 0 1 1 1 1 1 1 1 0 0 0 1 1 1 1 1 1 1 1 1 1 1 1 1 0 0 0 0 0 1 1 1 1 1 1 1 1 1
0 0 0 0 0 0 1 1 1 1 1 1 1 0 0 0 0 0 1 1 1 1 1 1 1 1 1 1 1 0 0 0 0 0 0 1 1 1 1 1 1 1 1
0 0 0 0 0 0 0 1 1 1 1 1 0 0 0 0 0 0 1 1 1 1 1 1 1 1 1 1 0 0 0 0 0 0 0 1 1 1 1 1 1 1 1
0 0 0 0 0 0 0 0 1 1 1 1 0 0 0 0 0 0 1 1 1 1 1 1 1 1 1 1 0 0 0 0 0 0 1 1 1 1 1 1 1 1 1
0 0 0 0 0 0 0 0 0 1 1 1 0 0 0 0 0 0 0 1 1 1 1 1 1 1 1 1 1 0 0 0 0 0 1 1 1 1 1 1 1 1 1
0 0 0 0 0 0 0 0 0 0 0 0 0 0 0 0 0 0 0 0 1 1 1 1 1 1 1 1 1 1 1 1 0 0 1 1 1 1 1 1 1 1 1
0 0 0 0 0 0 0 0 0 0 0 0 0 0 0 0 0 0 0 0 1 1 0 1 1 1 1 1 1 1 1 1 1 0 1 1 1 1 1 1 1 1 1
0 0 0 0 0 0 0 0 0 0 0 0 0 0 0 0 0 0 0 0 0 0 0 0 1 1 1 1 1 1 1 1 1 1 1 1 1 1 1 1 1 1 1
0 0 0 0 0 0 0 0 0 0 0 0 0 0 0 0 1 0 0 0 0 0 0 0 1 1 1 1 1 1 0 1 1 1 1 1 1 1 1 1 1 1 1
0 0 0 0 0 0 0 0 0 0 0 0 0 0 0 0 0 0 0 0 0 0 0 0 1 1 1 1 1 1 0 1 1 1 1 1 1 1 1 1 1 1 1
0 0 0 0 0 0 0 0 0 0 0 0 0 0 0 0 0 0 0 0 0 0 0 0 1 1 1 1 1 1 1 1 1 1 1 1 1 1 1 1 1 1 1
0 0 0 0 0 0 0 0 0 0 0 0 0 0 0 0 0 0 0 0 0 0 0 0 0 1 1 1 1 1 1 0 1 1 1 1 1 1 1 1 1 1 1
0 0 0 0 0 0 0 0 0 0 0 0 0 0 0 0 0 0 0 0 0 0 0 0 0 0 1 1 1 1 1 0 0 1 1 1 1 1 1 1 1 1 1
0 0 0 0 0 0 0 0 0 0 0 0 0 0 0 0 0 0 0 0 0 0 0 0 0 1 1 0 0 0 0 0 0 0 0 1 1 1 1 1 1 1 1
0 0 0 0 0 0 0 0 0 0 0 0 0 0 0 0 0 0 0 0 0 0 0 0 0 0 1 0 0 0 0 0 0 0 0 0 1 1 1 1 1 1 1
0 0 0 0 0 0 0 0 0 0 0 0 0 0 0 0 0 0 0 0 0 0 0 0 0 0 0 0 0 0 0 0 0 0 0 0 0 0 0 0 0 0 0
0 0 0 0 0 0 0 0 0 0 0 0 0 0 0 0 0 0 0 0 0 0 0 0 0 0 0 0 0 0 0 0 0 0 0 0 0 0 0 0 0 0 0
0 0 0 0 0 0 0 0 0 0 0 0 0 0 0 0 0 0 0 0 0 0 0 0 0 0 0 0 0 0 0 0 0 0 0 0 0 0 0 0 0 0 0
0 0 0 0 0 0 0 0 0 0 0 0 0 0 0 0 0 0 0 0 0 0 0 0 0 0 0 0 0 0 0 0 0 0 0 0 0 0 0 0 0 0 0
0 0 0 0 0 0 0 0 0 0 0 0 0 0 0 0 0 0 0 0 0 0 0 0 0 0 0 0 0 0 0 0 0 0 0 0 0 0 0 0 0 0 0
0 0 0 0 0 0 0 0 0 0 0 0 0 0 0 0 0 0 0 0 0 0 0 0 0 0 0 0 0 0 0 0 0 0 0 0 0 0 0 0 0 0 0
0 0 0 0 0 0 0 0 0 0 0 0 0 0 0 0 0 0 0 0 0 0 0 0 0 0 0 0 0 0 0 0 0 0 0 0 0 0 0 0 0 0 0
0 0 0 0 0 0 0 0 0 0 0 0 0 0 0 0 0 0 0 0 0 0 0 0 0 0 0 0 0 0 0 0 0 0 0 0 0 0 0 0 0 0 0
0 0 0 0 0 0 0 0 0 0 0 0 0 0 0 0 0 0 0 0 0 0 0 0 0 0 0 0 0 0 0 0 0 0 0 0 0 0 0 0 0 0 0
0 0 0 0 0 0 0 0 0 0 0 0 0 0 0 0 0 0 0 0 0 0 0 0 0 0 0 0 0 0 0 0 0 0 0 0 0 0 0 0 0 0 0
0 0 0 0 0 0 0 0 0 0 0 0 0 0 0 0 0 0 0 0 0 0 0 0 0 0 0 0 0 0 0 0 0 0 0 0 0 0 0 0 0 0 0
Wind_Speed
1 2 1 2 2 1 1 1 1 2 2 2 2 3 2 3 3 2 2 7 8 9 9 9 9 9 9 9 9 9 10 10 10 10 10 10 10 10 10 10 11 11 11
1 1 2 2 2 2 1 1 1 1 1 1 2 3 3 3 3 3 2 4 6 7 9 9 9 9 9 10 10 10 10 10 10 10 10 10 10 10 10 10 10 10 10
2 1 1 2 2 2 2 2 2 1 1 2 2 2 2 2 2 3 3 2 2 5 8 9 9 9 9 10 10 10 10 10 10 11 11 11 10 11 11 10 10 10 10
2 2 1 2 2 2 2 1 2 2 2 2 2 2 1 1 2 2 2 2 2 2 4 7 7 8 9 10 11 11 11 10 10 11 11 11 11 11 11 11 11 10 10
2 1 1 1 2 1 2 2 1 1 2 2 3 2 1 1 1 1 1 2 2 2 2 4 6 7 8 10 11 11 11 11 11 11 11 11 11 11 11 11 11 11 10
2 1 1 2 2 1 2 2 1 1 1 2 2 2 1 1 1 1 1 1 1 2 2 2 2 4 7 8 10 11 11 11 12 12 12 12 12 11 11 11 11 11 11
1 1 1 1 1 1 1 1 1 2 2 1 2 2 3 2 1 0 1 1 1 1 2 2 2 2 3 7 8 10 11 11 12 12 12 12 12 12 12 11 11 11 11
1 1 0 1 1 1 2 1 1 1 1 2 1 1 2 4 3 1 0 1 1 1 1 2 2 2 2 2 5 8 9 9 11 12 12 12 12 12 12 12 11 11 11
1 1 1 1 1 0 0 1 0 1 0 1 1 2 2 1 2 2 1 1 1 0 0 0 1 2 3 2 3 6 9 8 9 11 11 11 11 12 12 12 11 11 11
2 1 1 1 1 1 1 1 1 1 1 0 1 1 1 2 1 1 2 1 0 0 0 0 0 1 2 2 3 6 8 9 9 10 11 11 11 12 12 12 12 11 11
2 2 2 1 1 1 1 1 0 1 1 1 1 0 1 1 1 1 1 2 2 1 0 0 1 1 1 2 3 5 8 9 9 9 10 11 11 12 12 12 12 12 12
2 3 2 1 1 1 1 2 1 1 1 1 1 1 1 1 0 1 1 1 1 2 1 0 1 1 1 1 3 6 7 7 8 8 8 9 10 11 11 12 13 12 12
2 3 2 2 1 1 1 1 1 1 2 2 2 1 1 1 2 2 1 0 1 1 1 1 0 1 1 1 2 4 5 6 7 7 7 7 8 8 9 11 12 13 13
3 3 2 1 1 1 0 1 1 1 1 2 2 2 1 1 2 2 2 2 1 1 2 1 1 0 0 1 2 3 3 5 6 6 7 8 7 8 8 9 10 11 12
2 2 1 1 1 1 0 1 1 1 1 1 2 2 1 1 1 2 2 2 3 1 1 2 1 1 1 1 2 2 2 5 6 6 7 7 7 7 8 8 8 8 8
2 1 1 1 1 1 0 1 0 0 1 1 1 1 1 1 1 1 1 2 2 3 2 2 2 2 1 0 2 1 2 4 5 6 7 8 8 8 7 8 7 7 7
1 1 1 1 1 1 0 0 0 1 1 0 0 1 1 1 1 1 1 1 2 2 2 2 1 1 0 0 0 1 1 2 3 6 7 8 8 8 8 8 7 7 7
1 2 1 1 1 0 0 1 1 1 1 1 1 1 1 1 1 1 1 1 1 2 3 2 1 0 1 2 1 1 1 1 2 5 7 7 8 8 8 8 7 7 7
1 1 1 1 1 1 0 1 1 1 1 2 2 2 2 2 1 1 2 2 1 1 2 2 1 1 0 0 0 0 0 0 2 3 5 6 6 7 7 8 8 8 8
1 1 1 1 1 1 1 0 1 1 1 1 1 2 2 3 3 3 2 2 2 1 1 1 1 1 1 0 1 0 0 1 1 1 1 2 4 5 6 7 8 8 8
2 2 1 1 0 1 1 1 1 1 1 0 0 1 1 2 3 3 2 3 2 2 1 1 1 0 0 0 1 1 0 1 1 0 0 1 1 2 3 5 7 8 8
2 2 1 1 1 1 1 2 2 1 1 1 1 1 1 1 1 2 3 4 5 4 3 2 1 1 2 2 1 1 1 1 1 1 0 1 1 2 2 3 5 8 9
2 2 2 2 2 2 2 2 3 2 1 1 1 1 1 1 0 1 0 1 2 3 4 4 3 3 3 3 2 2 2 2 2 2 0 1 1 2 2 3 6 7 8
3 3 3 3 2 3 3 2 3 2 1 1 1 2 1 1 1 2 1 1 0 1 1 2 3 3 3 3 3 3 3 1 1 1 1 1 1 2 2 2 4 6 6
3 3 3 3 3 3 3 2 3 2 1 0 1 1 1 1 2 3 3 2 0 1 1 1 1 1 1 1 2 2 2 1 1 1 1 1 1 1 1 2 2 4 5
5 4 3 3 4 3 3 3 5 2 1 0 1 1 1 1 1 3 3 3 2 1 0 1 2 3 2 2 2 2 3 2 1 1 1 1 1 0 2 2 1 2 2
Wind_Direction
8 358 351 355 340 333 322 307 302 292 285 265 249 245 248 243 228 226 235 227 213 204 198 194 193 187 185 181 180 176 171 165 161 160 158 156 153 148 144 145 144 146 148
50 23 5 358 350 345 339 326 325 310 294 291 272 258 249 234 221 218 221 232 220 210 204 197 196 190 188 183 181 176 175 173 170 167 164 161 158 157 155 154 151 151 150
61 52 27 1 338 345 360 2 355 354 344 333 298 282 265 241 218 214 208 211 227 221 211 202 197 193 190 188 185 182 179 177 174 172 169 167 165 162 161 160 158 156 155
48 48 31 352 337 357 12 8 9 358 346 334 307 293 282 250 224 203 195 191 202 216 214 207 199 198 197 194 189 187 183 180 176 176 174 172 171 169 168 166 164 163 163
46 50 24 338 347 5 6 354 16 6 338 328 304 290 297 265 240 198 181 188 192 200 214 214 205 203 201 198 193 190 186 185 182 181 179 177 175 174 173 173 173 170 170
33 32 2 349 2 8 357 355 353 356 336 316 317 331 315 287 227 182 184 188 189 194 207 209 202 212 207 201 195 193 190 190 189 186 184 182 179 178 178 177 177 177 177
20 31 1 351 3 7 331 340 356 3 348 354 27 359 347 345 0 62 166 168 187 193 192 193 195 195 209 205 199 196 195 194 192 191 188 186 184 183 183 182 181 182 182
331 13 33 321 330 358 359 6 44 34 349 25 81 63 3 352 350 357 1 179 160 152 177 190 195 197 197 182 196 193 192 194 195 193 190 190 188 187 187 187 186 187 186
293 314 291 262 294 183 291 301 121 123 21 349 53 119 125 248 313 331 340 36 80 108 214 150 193 211 195 182 183 195 190 188 197 197 194 192 191 191 191 191 190 191 190
295 288 283 267 256 223 232 254 161 150 128 28 344 38 144 167 147 329 335 344 353 164 243 157 165 211 196 186 187 190 193 190 196 200 198 195 193 192 194 194 195 195 193
298 290 287 283 259 226 223 236 213 153 149 155 157 114 48 48 90 133 320 330 344 318 290 168 167 203 207 193 192 193 192 191 197 204 204 199 198 197 196 197 198 199 199
298 294 291 290 262 236 230 223 206 181 171 160 160 151 143 130 157 126 146 286 307 302 314 28 161 179 200 190 203 190 189 194 199 205 204 203 203 201 201 203 201 200 203
286 286 290 281 272 257 237 211 190 192 182 172 176 179 177 182 172 153 139 141 338 315 348 359 245 167 182 190 202 185 187 197 202 204 203 202 203 203 206 209 209 207 209
253 267 273 268 267 279 240 161 149 190 175 182 191 180 177 189 173 167 161 145 80 352 355 316 307 199 182 200 215 193 191 199 204 205 202 201 205 205 209 216 217 216 215
252 257 252 253 283 287 197 126 122 174 156 179 190 183 182 202 185 174 164 154 149 152 281 283 288 279 248 188 197 194 196 209 210 210 206 204 207 208 210 215 218 220 220
261 242 238 251 290 300 284 130 122 187 142 189 193 174 195 216 207 181 171 165 161 160 203 250 246 252 242 204 186 186 208 217 219 218 212 209 208 209 210 213 216 216 217
253 234 226 216 247 280 261 172 187 146 140 177 202 180 211 202 189 191 168 155 165 156 181 263 266 263 181 194 229 239 204 213 224 222 217 212 210 209 209 209 211 211 214
239 228 191 166 195 219 191 170 209 176 172 196 231 179 200 174 176 183 165 172 180 175 168 211 260 276 238 212 201 211 214 221 230 227 222 217 212 210 209 209 210 212 215
224 207 149 172 204 212 204 203 195 204 205 209 210 190 193 159 169 188 179 180 191 179 164 179 225 260 272 218 115 323 220 269 249 227 215 212 211 214 216 215 214 217 220
189 200 196 204 209 211 204 180 147 168 194 221 212 200 197 185 192 189 181 184 173 152 150 159 187 236 255 291 116 132 336 328 287 267 211 204 212 218 222 224 223 222 224
188 187 167 174 192 188 204 177 155 149 161 147 296 245 229 206 198 190 180 180 162 153 151 150 174 162 276 189 180 181 193 315 307 280 161 233 210 226 232 232 230 227 228
179 163 170 187 205 245 226 169 145 133 153 170 248 288 285 273 217 196 185 177 172 168 172 171 182 200 232 223 190 167 148 105 295 291 97 283 208 238 243 231 233 233 232
185 187 206 204 223 259 235 181 164 146 156 207 225 249 284 294 205 157 182 148 192 201 186 173 184 208 206 208 179 177 186 186 222 247 122 262 244 253 254 247 235 233 234
191 201 214 217 223 260 254 207 165 140 144 227 224 211 217 267 243 186 165 137 258 276 232 191 192 215 219 213 195 189 184 173 254 265 168 223 251 251 273 266 253 240 236
196 205 211 209 214 257 261 198 150 125 130 309 287 218 194 229 252 175 149 149 91 322 305 157 161 200 236 216 164 135 141 142 249 273 190 180 244 277 283 281 278 265 257
199 203 213 210 205 224 245 191 159 142 149 241 336 330 242 203 219 155 148 151 163 251 67 62 49 36 46 56 80 140 165 162 175 251 225 168 210 10 313 297 302 311 290